Flag for Brazil Weather past 2 weeks in Curitiba, Paraná, Brazil

Now
50 °F

Partly cloudy.


Feels Like: 48 °F
Forecast: 49 / 57 °F
Wind: 6 mph from East

Location: Curitiba Aeroporto

Current Time: Jul 28, 2014 at 4:37:26 AM

Latest Report: Jul 28, 2014 at 4:00 AM


Visibility: 5 mi

Pressure: 30.39 "Hg

Humidity: 100%

Dew point: 50 °F

Location of CuritibaLocation

Historic Weather in Curitiba — Graph

°F

Curitiba temperature yesterday

Maximum temperature yesterday: 54 °F (at 11:00 AM)
Minimum temperature yesterday: 45 °F (at 2:00 AM)
Average temperature yesterday: 49 °F

Past Weeks' High & Low Weather Summary

 TemperatureHumidityPressure
High73 °F (Jul 17, 1:00 PM)100% (Jul 13, 5:00 AM)30.45 "Hg (Jul 13, 5:00 AM)
Low34 °F (Jul 20, 7:00 AM)31% (Jul 19, 3:00 PM)29.89 "Hg (Jul 24, 2:00 PM)
Average54 °F86%30.22 "Hg
* Reported Jul 13 3:00 AM — Jul 28 3:00 AM, Curitiba, Weather by CustomWeather, © 2014

Note: Actual official high and low records may vary slightly from our data, if they occured in-between our weather recording intervals... More about our weather records

Advertising

Curitiba weather history for previous 24 hours

 ConditionsComfort  
Time TempWeatherWind HumidityBarometerVisibility
3:00 AM
Jul 28
50 °FPartly cloudy.5 mph100%30.39 "Hg4 mi
2:00 AM50 °FPartly cloudy.5 mph100%30.42 "Hg4 mi
1:00 AM50 °FPassing clouds.7 mph100%30.42 "HgN/A
12:00 AM50 °FPassing clouds.8 mph100%30.45 "HgN/A
11:00 PM
Jul 27
50 °FPassing clouds.7 mph100%30.45 "Hg4 mi
10:00 PM50 °FFog.6 mph100%30.42 "Hg3 mi
9:00 PM50 °FFog.7 mph100%30.42 "Hg3 mi
8:00 PM50 °FPassing clouds.6 mph100%30.39 "Hg4 mi
7:07 PM50 °FPassing clouds.8 mph100%30.39 "HgN/A
7:00 PM50 °FPassing clouds.8 mph100%30.39 "HgN/A
6:00 PM50 °FPassing clouds.7 mph94%30.39 "Hg5 mi
5:00 PM50 °FPartly cloudy.8 mph100%30.36 "Hg4 mi
4:00 PM50 °FPartly sunny.10 mph100%30.36 "Hg4 mi
3:00 PM52 °FBroken clouds.9 mph94%30.33 "Hg5 mi
2:00 PM52 °FCloudy.13 mph94%30.33 "Hg5 mi
1:00 PM54 °FCloudy.13 mph88%30.36 "HgN/A
12:00 PM54 °FCloudy.9 mph88%30.36 "HgN/A
11:00 AM54 °FCloudy.9 mph82%30.39 "HgN/A
10:00 AM52 °FBroken clouds.8 mph94%30.36 "HgN/A
9:00 AM50 °FBroken clouds.9 mph100%30.36 "HgN/A
8:00 AM48 °FBroken clouds.7 mph100%30.33 "Hg6 mi
7:00 AM46 °FPartly sunny.3 mph100%30.30 "Hg4 mi
6:00 AM46 °FPartly sunny.2 mph100%30.27 "Hg6 mi
5:00 AM46 °FPassing clouds.No wind100%30.27 "HgN/A
4:00 AM45 °FFog.No wind100%30.27 "Hg0 mi
Weather by CustomWeather, © 2014

See weather overviewHow to use our weather pages